User: anonymous   Login
Location: Unspecified
(0.0000°N, 0.0000°E)
Time: 02:56:13
(UTC+00:00)
Language:

Asterix - Orbit

View from above orbital plane
View from above orbital plane
View from above satellite
View from above satellite

Ground track
Ground track

The orbit data is extracted from the following two-line orbital elements,

1  1778U 65096A   18171.56277636 +.00000065 +00000-0 +18300-4 0  9996
2  1778 034.2561 271.9170 0751216 162.1430 200.7184 13.46865440570872
Epoch (UTC): 20 June 2018 13:30:23
Eccentricity: 0.0751216
inclination: 34.2561°
perigee height: 523 km
apogee height: 1644 km
right ascension of ascending node: 271.9170°
argument of perigee: 162.1430°
revolutions per day: 13.46865440
mean anomaly at epoch: 200.7184°
orbit number at epoch: 57087

The dashed part of the orbit path shows where the satellite is in the earth's shadow,  

DLR